QPF
0.00 0.00 0.01 0.02 0.01 0.02 0.02 0.01 0.00 0.00 0.00 0.00 0.00 0.00 0.00 0.00 0.00 0.00 0.00 0.00 0.00 0.00 0.00 0.01 0.01 0.02 0.03 0.02 0.01 0.01 0.01 0.01 0.01 0.01 0.02 0.01 0.01 0.01 0.02 0.01 0.01 0.01 0.02 0.02 0.02 0.02 0.01 0.01 0.01
0.01 0.01 0.01 0.01 0.01 0.01 0.01 0.01 0.00 0.00 0.00 0.00 0.00 0.00 0.00 0.00 0.00 0.00 0.00 0.00 0.00 0.00 0.00 0.01 0.01 0.02 0.03 0.02 0.01 0.01 0.01 0.00 0.01 0.01 0.02 0.02 0.01 0.01 0.02 0.02 0.01 0.01 0.02 0.02 0.02 0.02 0.01 0.01 0.01
0.01 0.01 0.01 0.01 0.00 0.00 0.00 0.00 0.00 0.00 0.00 0.00 0.00 0.00 0.00 0.00 0.00 0.00 0.00 0.00 0.00 0.01 0.01 0.01 0.02 0.03 0.03 0.02 0.01 0.01 0.01 0.01 0.01 0.01 0.02 0.01 0.01 0.01 0.01 0.03 0.03 0.03 0.03 0.03 0.02 0.01 0.01 0.01 0.01
0.01 0.01 0.01 0.01 0.00 0.00 0.00 0.00 0.00 0.00 0.00 0.00 0.00 0.00 0.00 0.00 0.00 0.00 0.00 0.00 0.01 0.01 0.01 0.02 0.03 0.04 0.03 0.02 0.01 0.01 0.01 0.01 0.01 0.01 0.01 0.01 0.01 0.02 0.02 0.03 0.04 0.05 0.06 0.03 0.02 0.01 0.01 0.01 0.01
0.02 0.01 0.00 0.00 0.00 0.00 0.00 0.00 0.00 0.00 0.00 0.00 0.00 0.00 0.00 0.00 0.00 0.00 0.00 0.00 0.01 0.01 0.02 0.02 0.04 0.04 0.04 0.03 0.02 0.01 0.01 0.01 0.01 0.01 0.01 0.01 0.01 0.02 0.02 0.02 0.03 0.04 0.04 0.03 0.01 0.01 0.01 0.01 0.01
0.02 0.01 0.00 0.00 0.00 0.00 0.00 0.00 0.00 0.00 0.00 0.00 0.00 0.00 0.00 0.00 0.00 0.00 0.00 0.00 0.01 0.01 0.02 0.02 0.03 0.03 0.04 0.03 0.02 0.01 0.01 0.01 0.01 0.01 0.01 0.01 0.01 0.02 0.02 0.03 0.03 0.03 0.03 0.02 0.01 0.01 0.02 0.02 0.02
0.01 0.01 0.00 0.00 0.00 0.00 0.00 0.00 0.00 0.00 0.00 0.00 0.00 0.00 0.00 0.00 0.00 0.00 0.01 0.01 0.01 0.02 0.02 0.02 0.02 0.03 0.03 0.03 0.02 0.02 0.01 0.01 0.01 0.01 0.01 0.01 0.01 0.01 0.02 0.03 0.04 0.04 0.04 0.03 0.02 0.01 0.02 0.02 0.02
0.00 0.01 0.01 0.00 0.00 0.00 0.00 0.00 0.00 0.00 0.00 0.00 0.00 0.00 0.01 0.01 0.01 0.01 0.01 0.01 0.02 0.03 0.03 0.02 0.03 0.03 0.03 0.03 0.03 0.02 0.01 0.01 0.01 0.01 0.00 0.00 0.00 0.01 0.01 0.03 0.04 0.04 0.04 0.03 0.03 0.02 0.02 0.02 0.02
0.01 0.01 0.01 0.00 0.00 0.00 0.00 0.00 0.00 0.00 0.00 0.00 0.00 0.00 0.01 0.02 0.02 0.03 0.03 0.04 0.05 0.04 0.04 0.02 0.02 0.02 0.03 0.03 0.03 0.03 0.02 0.01 0.01 0.00 0.00 0.00 0.00 0.00 0.01 0.01 0.03 0.04 0.03 0.03 0.03 0.02 0.02 0.01 0.01
0.00 0.00 0.00 0.00 0.00 0.00 0.00 0.00 0.00 0.00 0.00 0.00 0.00 0.00 0.01 0.02 0.02 0.03 0.03 0.04 0.04 0.04 0.04 0.03 0.02 0.02 0.03 0.03 0.04 0.03 0.03 0.01 0.01 0.01 0.00 0.00 0.00 0.00 0.00 0.01 0.02 0.03 0.03 0.03 0.03 0.03 0.02 0.01 0.01
0.00 0.00 0.00 0.00 0.00 0.01 0.01 0.01 0.00 0.00 0.00 0.00 0.00 0.00 0.00 0.02 0.03 0.03 0.03 0.04 0.04 0.04 0.05 0.04 0.03 0.02 0.03 0.04 0.05 0.06 0.07 0.05 0.01 0.01 0.01 0.00 0.00 0.00 0.00 0.00 0.01 0.02 0.03 0.04 0.07 0.04 0.02 0.01 0.00
0.00 0.00 0.00 0.00 0.01 0.01 0.01 0.01 0.01 0.00 0.00 0.00 0.00 0.00 0.01 0.02 0.05 0.05 0.04 0.04 0.04 0.05 0.06 0.06 0.04 0.03 0.02 0.03 0.06 0.08 0.09 0.09 0.03 0.01 0.01 0.01 0.00 0.00 0.00 0.00 0.00 0.01 0.01 0.03 0.07 0.05 0.02 0.01 0.01
0.00 0.00 0.00 0.00 0.00 0.01 0.01 0.01 0.01 0.01 0.00 0.00 0.00 0.01 0.01 0.02 0.04 0.08 0.07 0.04 0.04 0.04 0.05 0.07 0.06 0.05 0.03 0.02 0.04 0.07 0.10 0.10 0.07 0.02 0.01 0.01 0.00 0.00 0.00 0.00 0.01 0.01 0.01 0.01 0.03 0.05 0.03 0.02 0.01
0.00 0.00 0.00 0.00 0.00 0.00 0.00 0.01 0.01 0.01 0.01 0.00 0.00 0.01 0.01 0.03 0.03 0.05 0.08 0.06 0.04 0.04 0.05 0.06 0.07 0.07 0.05 0.03 0.04 0.06 0.10 0.11 0.09 0.04 0.01 0.01 0.01 0.00 0.00 0.00 0.00 0.01 0.01 0.02 0.03 0.04 0.04 0.03 0.02
0.01 0.00 0.00 0.00 0.00 0.00 0.00 0.00 0.01 0.01 0.01 0.01 0.00 0.01 0.02 0.03 0.03 0.03 0.04 0.05 0.04 0.04 0.04 0.05 0.06 0.06 0.06 0.05 0.05 0.07 0.08 0.10 0.10 0.07 0.03 0.02 0.01 0.00 0.00 0.00 0.00 0.00 0.01 0.02 0.02 0.04 0.05 0.04 0.03
0.01 0.01 0.00 0.00 0.00 0.00 0.00 0.01 0.01 0.01 0.01 0.01 0.01 0.01 0.02 0.03 0.03 0.02 0.03 0.04 0.04 0.04 0.04 0.04 0.05 0.06 0.06 0.05 0.06 0.08 0.08 0.09 0.10 0.08 0.05 0.02 0.01 0.00 0.00 0.01 0.00 0.00 0.01 0.02 0.02 0.03 0.04 0.05 0.05
0.02 0.01 0.00 0.00 0.00 0.00 0.00 0.01 0.00 0.01 0.02 0.01 0.01 0.01 0.01 0.03 0.03 0.03 0.03 0.03 0.03 0.04 0.05 0.05 0.05 0.04 0.06 0.06 0.05 0.06 0.09 0.09 0.09 0.08 0.06 0.03 0.02 0.01 0.01 0.01 0.01 0.01 0.01 0.01 0.02 0.02 0.03 0.04 0.05
0.03 0.02 0.01 0.01 0.00 0.01 0.01 0.01 0.01 0.01 0.01 0.01 0.01 0.01 0.01 0.02 0.03 0.05 0.04 0.03 0.03 0.04 0.05 0.06 0.06 0.05 0.06 0.07 0.06 0.05 0.07 0.09 0.09 0.07 0.06 0.05 0.03 0.03 0.02 0.02 0.02 0.02 0.02 0.01 0.02 0.02 0.03 0.04 0.06
0.02 0.02 0.02 0.01 0.01 0.01 0.02 0.03 0.03 0.02 0.01 0.01 0.01 0.01 0.01 0.02 0.03 0.04 0.04 0.04 0.04 0.04 0.05 0.07 0.07 0.06 0.06 0.06 0.05 0.04 0.05 0.06 0.07 0.08 0.06 0.04 0.03 0.03 0.02 0.02 0.01 0.01 0.01 0.02 0.02 0.02 0.03 0.04 0.05
0.02 0.02 0.02 0.02 0.01 0.02 0.03 0.04 0.02 0.01 0.02 0.02 0.02 0.02 0.02 0.02 0.02 0.03 0.03 0.04 0.03 0.04 0.05 0.06 0.07 0.06 0.05 0.05 0.06 0.05 0.05 0.07 0.07 0.07 0.06 0.04 0.03 0.03 0.02 0.01 0.01 0.01 0.01 0.01 0.02 0.02 0.02 0.03 0.06
0.02 0.01 0.01 0.02 0.02 0.02 0.02 0.02 0.01 0.01 0.02 0.03 0.03 0.02 0.02 0.02 0.02 0.02 0.03 0.03 0.03 0.03 0.05 0.05 0.05 0.06 0.06 0.05 0.06 0.07 0.06 0.06 0.07 0.08 0.08 0.05 0.04 0.03 0.02 0.02 0.01 0.01 0.01 0.01 0.02 0.02 0.02 0.03 0.04
0.02 0.01 0.01 0.01 0.02 0.02 0.01 0.02 0.01 0.02 0.02 0.03 0.03 0.02 0.01 0.01 0.01 0.01 0.01 0.02 0.02 0.02 0.04 0.05 0.05 0.05 0.06 0.06 0.05 0.05 0.05 0.05 0.05 0.06 0.07 0.06 0.05 0.04 0.03 0.02 0.02 0.01 0.01 0.01 0.02 0.02 0.02 0.02 0.03
0.02 0.01 0.01 0.01 0.02 0.02 0.01 0.01 0.01 0.01 0.02 0.03 0.04 0.04 0.02 0.01 0.01 0.00 0.00 0.01 0.01 0.02 0.03 0.04 0.05 0.06 0.06 0.06 0.05 0.05 0.05 0.05 0.05 0.05 0.05 0.05 0.05 0.04 0.05 0.04 0.04 0.04 0.03 0.02 0.01 0.02 0.02 0.03 0.03
0.02 0.02 0.02 0.02 0.02 0.02 0.01 0.01 0.01 0.02 0.03 0.02 0.03 0.04 0.02 0.01 0.00 0.00 0.00 0.01 0.01 0.02 0.03 0.04 0.05 0.05 0.05 0.05 0.05 0.05 0.05 0.04 0.05 0.06 0.06 0.05 0.04 0.04 0.04 0.04 0.03 0.03 0.03 0.02 0.02 0.01 0.02 0.02 0.03
0.02 0.03 0.03 0.03 0.03 0.01 0.01 0.02 0.02 0.02 0.02 0.02 0.02 0.01 0.01 0.00 0.00 0.00 0.00 0.01 0.01 0.02 0.03 0.04 0.05 0.06 0.05 0.06 0.06 0.05 0.05 0.04 0.04 0.04 0.05 0.04 0.03 0.03 0.03 0.02 0.03 0.02 0.02 0.02 0.02 0.01 0.01 0.02 0.02
0.01 0.01 0.02 0.02 0.01 0.00 0.01 0.01 0.02 0.01 0.01 0.01 0.01 0.01 0.00 0.00 0.00 0.00 0.01 0.01 0.02 0.03 0.03 0.03 0.05 0.05 0.05 0.05 0.06 0.05 0.05 0.04 0.04 0.04 0.03 0.04 0.03 0.02 0.02 0.01 0.02 0.02 0.02 0.02 0.02 0.02 0.02 0.02 0.02
0.02 0.02 0.01 0.02 0.02 0.01 0.01 0.01 0.01 0.01 0.01 0.01 0.00 0.00 0.00 0.00 0.00 0.00 0.01 0.01 0.02 0.03 0.03 0.03 0.05 0.05 0.05 0.05 0.05 0.05 0.05 0.05 0.05 0.04 0.02 0.02 0.02 0.02 0.01 0.01 0.01 0.01 0.02 0.01 0.01 0.01 0.02 0.02 0.02
0.01 0.02 0.02 0.03 0.03 0.02 0.02 0.01 0.01 0.01 0.02 0.01 0.01 0.01 0.01 0.00 0.00 0.00 0.00 0.01 0.02 0.02 0.03 0.03 0.04 0.06 0.05 0.05 0.05 0.05 0.05 0.05 0.05 0.03 0.02 0.01 0.01 0.02 0.02 0.01 0.01 0.01 0.01 0.01 0.01 0.01 0.01 0.02 0.02
0.01 0.02 0.02 0.02 0.03 0.02 0.02 0.01 0.01 0.02 0.01 0.01 0.01 0.01 0.01 0.01 0.01 0.00 0.00 0.01 0.01 0.02 0.03 0.03 0.03 0.05 0.06 0.05 0.05 0.05 0.05 0.05 0.04 0.02 0.02 0.01 0.01 0.01 0.01 0.01 0.01 0.01 0.01 0.01 0.01 0.01 0.01 0.02 0.02
0.01 0.01 0.01 0.02 0.02 0.02 0.01 0.01 0.02 0.02 0.02 0.01 0.01 0.01 0.01 0.01 0.01 0.01 0.01 0.01 0.01 0.02 0.03 0.03 0.03 0.04 0.05 0.05 0.05 0.04 0.04 0.05 0.04 0.02 0.02 0.02 0.01 0.01 0.01 0.01 0.01 0.01 0.01 0.02 0.02 0.01 0.01 0.02 0.02
MSLP
1012.87 1013.53 1014.27 1014.98 1015.55 1015.89 1015.98 1015.82 1015.46 1015.00 1014.53 1014.13 1013.82 1013.60 1013.43 1013.25 1013.00 1012.64 1012.18 1011.67 1011.17 1010.77 1010.54 1010.54 1010.76 1011.15 1011.65 1012.16 1012.62 1012.99 1013.24 1013.42 1013.56 1013.72 1013.93 1014.22 1014.57 1014.95 1015.30 1015.61 1015.84 1016.00 1016.10 1016.20 1016.31 1016.46 1016.65 1016.89 1017.13
1013.35 1014.02 1014.71 1015.30 1015.71 1015.85 1015.71 1015.33 1014.79 1014.17 1013.60 1013.14 1012.83 1012.64 1012.53 1012.44 1012.29 1012.03 1011.68 1011.26 1010.84 1010.52 1010.35 1010.38 1010.63 1011.04 1011.54 1012.07 1012.56 1012.95 1013.25 1013.47 1013.66 1013.85 1014.09 1014.39 1014.73 1015.08 1015.42 1015.71 1015.93 1016.09 1016.21 1016.33 1016.46 1016.64 1016.85 1017.10 1017.35
1013.91 1014.53 1015.12 1015.54 1015.74 1015.65 1015.29 1014.72 1014.02 1013.31 1012.69 1012.21 1011.93 1011.79 1011.76 1011.75 1011.69 1011.54 1011.29 1010.97 1010.65 1010.40 1010.29 1010.36 1010.62 1011.03 1011.53 1012.05 1012.54 1012.96 1013.28 1013.54 1013.77 1014.00 1014.26 1014.55 1014.88 1015.20 1015.51 1015.77 1015.97 1016.13 1016.26 1016.41 1016.57 1016.78 1017.02 1017.29 1017.55
1014.49 1015.04 1015.47 1015.70 1015.67 1015.36 1014.81 1014.08 1013.28 1012.52 1011.90 1011.46 1011.22 1011.15 1011.18 1011.25 1011.27 1011.21 1011.05 1010.83 1010.61 1010.45 1010.40 1010.51 1010.78 1011.17 1011.65 1012.15 1012.62 1013.03 1013.37 1013.66 1013.92 1014.18 1014.46 1014.76 1015.07 1015.37 1015.63 1015.85 1016.03 1016.18 1016.33 1016.49 1016.69 1016.93 1017.20 1017.48 1017.76
1015.05 1015.49 1015.75 1015.77 1015.53 1015.03 1014.33 1013.50 1012.66 1011.91 1011.33 1010.94 1010.77 1010.76 1010.84 1010.96 1011.04 1011.04 1010.97 1010.85 1010.72 1010.65 1010.68 1010.83 1011.11 1011.49 1011.93 1012.38 1012.81 1013.20 1013.54 1013.85 1014.15 1014.45 1014.75 1015.06 1015.36 1015.63 1015.86 1016.05 1016.20 1016.33 1016.48 1016.65 1016.86 1017.12 1017.41 1017.71 1017.99
1015.53 1015.83 1015.92 1015.75 1015.33 1014.68 1013.89 1013.03 1012.21 1011.52 1011.01 1010.70 1010.59 1010.61 1010.73 1010.86 1010.97 1011.01 1011.01 1010.97 1010.95 1010.97 1011.08 1011.28 1011.58 1011.94 1012.34 1012.74 1013.13 1013.49 1013.83 1014.15 1014.48 1014.81 1015.15 1015.48 1015.78 1016.04 1016.24 1016.40 1016.52 1016.63 1016.76 1016.92 1017.14 1017.40 1017.69 1017.98 1018.25
1015.88 1016.04 1015.95 1015.62 1015.06 1014.33 1013.50 1012.68 1011.93 1011.33 1010.92 1010.69 1010.63 1010.67 1010.77 1010.89 1010.98 1011.05 1011.09 1011.13 1011.20 1011.33 1011.53 1011.81 1012.13 1012.49 1012.86 1013.22 1013.56 1013.89 1014.22 1014.56 1014.92 1015.29 1015.66 1016.02 1016.34 1016.59 1016.78 1016.91 1017.00 1017.08 1017.18 1017.33 1017.52 1017.76 1018.03 1018.30 1018.54
1016.08 1016.09 1015.84 1015.38 1014.73 1013.96 1013.16 1012.41 1011.77 1011.29 1010.99 1010.83 1010.79 1010.82 1010.88 1010.95 1011.01 1011.06 1011.13 1011.24 1011.41 1011.65 1011.96 1012.32 1012.69 1013.07 1013.43 1013.76 1014.07 1014.37 1014.69 1015.04 1015.43 1015.84 1016.26 1016.65 1016.99 1017.25 1017.43 1017.54 1017.61 1017.66 1017.73 1017.84 1017.99 1018.19 1018.42 1018.65 1018.85
1016.13 1015.98 1015.60 1015.03 1014.33 1013.57 1012.83 1012.19 1011.68 1011.32 1011.11 1011.00 1010.97 1010.96 1010.96 1010.96 1010.96 1010.99 1011.09 1011.26 1011.53 1011.89 1012.31 1012.76 1013.21 1013.62 1013.99 1014.31 1014.61 1014.90 1015.22 1015.58 1015.99 1016.44 1016.89 1017.31 1017.67 1017.94 1018.13 1018.22 1018.27 1018.29 1018.33 1018.40 1018.51 1018.66 1018.83 1019.01 1019.16
1016.03 1015.74 1015.24 1014.60 1013.88 1013.16 1012.51 1011.98 1011.59 1011.34 1011.20 1011.12 1011.07 1011.01 1010.93 1010.86 1010.80 1010.81 1010.93 1011.17 1011.53 1012.00 1012.54 1013.10 1013.64 1014.11 1014.51 1014.85 1015.15 1015.44 1015.76 1016.13 1016.55 1017.01 1017.49 1017.93 1018.31 1018.59 1018.78 1018.87 1018.91 1018.91 1018.92 1018.95 1019.02 1019.12 1019.24 1019.36 1019.46
1015.82 1015.41 1014.83 1014.15 1013.44 1012.76 1012.19 1011.76 1011.46 1011.29 1011.18 1011.11 1011.02 1010.90 1010.76 1010.61 1010.52 1010.52 1010.66 1010.97 1011.43 1012.01 1012.66 1013.33 1013.96 1014.51 1014.97 1015.34 1015.65 1015.96 1016.28 1016.65 1017.08 1017.55 1018.02 1018.46 1018.84 1019.13 1019.32 1019.42 1019.45 1019.45 1019.45 1019.46 1019.49 1019.55 1019.62 1019.69 1019.75
1015.55 1015.05 1014.41 1013.72 1013.02 1012.40 1011.89 1011.52 1011.28 1011.13 1011.04 1010.94 1010.80 1010.62 1010.42 1010.24 1010.12 1010.14 1010.33 1010.70 1011.25 1011.94 1012.71 1013.48 1014.20 1014.83 1015.35 1015.77 1016.12 1016.44 1016.78 1017.15 1017.56 1018.01 1018.46 1018.89 1019.25 1019.53 1019.73 1019.83 1019.88 1019.89 1019.89 1019.89 1019.90 1019.94 1019.97 1020.01 1020.03
1015.25 1014.70 1014.05 1013.37 1012.70 1012.11 1011.64 1011.29 1011.05 1010.89 1010.75 1010.60 1010.41 1010.19 1009.95 1009.75 1009.65 1009.71 1009.97 1010.42 1011.06 1011.84 1012.70 1013.56 1014.37 1015.07 1015.66 1016.14 1016.54 1016.89 1017.24 1017.60 1018.00 1018.41 1018.82 1019.21 1019.54 1019.81 1020.00 1020.12 1020.18 1020.21 1020.23 1020.24 1020.26 1020.28 1020.29 1020.30 1020.30
1014.97 1014.42 1013.79 1013.13 1012.49 1011.93 1011.45 1011.08 1010.80 1010.57 1010.35 1010.13 1009.88 1009.62 1009.38 1009.21 1009.16 1009.29 1009.62 1010.16 1010.89 1011.74 1012.67 1013.61 1014.48 1015.25 1015.91 1016.45 1016.91 1017.30 1017.67 1018.03 1018.39 1018.76 1019.12 1019.46 1019.75 1019.99 1020.17 1020.31 1020.40 1020.46 1020.50 1020.54 1020.57 1020.59 1020.59 1020.58 1020.56
1014.73 1014.21 1013.63 1013.01 1012.41 1011.84 1011.34 1010.91 1010.54 1010.20 1009.89 1009.57 1009.27 1008.99 1008.77 1008.65 1008.69 1008.91 1009.33 1009.96 1010.75 1011.66 1012.64 1013.62 1014.54 1015.38 1016.10 1016.71 1017.22 1017.67 1018.06 1018.42 1018.77 1019.09 1019.40 1019.68 1019.92 1020.13 1020.30 1020.44 1020.56 1020.66 1020.74 1020.81 1020.85 1020.88 1020.88 1020.85 1020.80
1014.53 1014.06 1013.54 1012.97 1012.40 1011.83 1011.28 1010.77 1010.28 1009.82 1009.38 1008.98 1008.62 1008.34 1008.16 1008.11 1008.25 1008.57 1009.09 1009.79 1010.65 1011.60 1012.60 1013.60 1014.56 1015.43 1016.21 1016.89 1017.47 1017.97 1018.41 1018.79 1019.12 1019.42 1019.68 1019.90 1020.10 1020.27 1020.43 1020.58 1020.72 1020.85 1020.97 1021.06 1021.13 1021.16 1021.15 1021.11 1021.04
1014.33 1013.92 1013.46 1012.95 1012.40 1011.82 1011.22 1010.61 1010.01 1009.42 1008.87 1008.38 1007.98 1007.71 1007.58 1007.62 1007.85 1008.29 1008.90 1009.67 1010.56 1011.52 1012.53 1013.53 1014.50 1015.40 1016.23 1016.97 1017.63 1018.20 1018.70 1019.11 1019.45 1019.73 1019.96 1020.14 1020.30 1020.45 1020.59 1020.74 1020.89 1021.05 1021.20 1021.32 1021.40 1021.43 1021.42 1021.36 1021.26
1014.08 1013.72 1013.31 1012.85 1012.33 1011.74 1011.10 1010.42 1009.71 1009.02 1008.38 1007.82 1007.39 1007.13 1007.06 1007.18 1007.52 1008.04 1008.73 1009.54 1010.45 1011.42 1012.41 1013.39 1014.35 1015.27 1016.14 1016.94 1017.68 1018.33 1018.89 1019.36 1019.73 1020.02 1020.23 1020.39 1020.52 1020.65 1020.78 1020.93 1021.09 1021.27 1021.44 1021.57 1021.67 1021.70 1021.68 1021.60 1021.48
1013.74 1013.38 1013.00 1012.57 1012.08 1011.50 1010.85 1010.13 1009.37 1008.61 1007.91 1007.32 1006.89 1006.65 1006.63 1006.83 1007.24 1007.84 1008.57 1009.42 1010.33 1011.27 1012.22 1013.18 1014.12 1015.04 1015.94 1016.80 1017.60 1018.33 1018.97 1019.51 1019.93 1020.24 1020.47 1020.63 1020.75 1020.86 1020.99 1021.14 1021.31 1021.50 1021.68 1021.83 1021.93 1021.96 1021.93 1021.84 1021.71
1013.26 1012.86 1012.47 1012.05 1011.59 1011.05 1010.43 1009.72 1008.96 1008.20 1007.50 1006.91 1006.49 1006.29 1006.32 1006.57 1007.04 1007.68 1008.44 1009.29 1010.17 1011.08 1011.98 1012.89 1013.80 1014.72 1015.63 1016.53 1017.40 1018.21 1018.93 1019.54 1020.02 1020.39 1020.65 1020.82 1020.96 1021.07 1021.20 1021.35 1021.53 1021.72 1021.91 1022.06 1022.17 1022.21 1022.18 1022.09 1021.95
1012.64 1012.14 1011.70 1011.29 1010.87 1010.39 1009.84 1009.21 1008.53 1007.83 1007.18 1006.64 1006.26 1006.10 1006.17 1006.46 1006.95 1007.61 1008.36 1009.18 1010.03 1010.88 1011.73 1012.58 1013.45 1014.34 1015.26 1016.18 1017.10 1017.97 1018.76 1019.45 1020.00 1020.43 1020.74 1020.96 1021.12 1021.25 1021.39 1021.55 1021.74 1021.93 1022.13 1022.29 1022.40 1022.45 1022.44 1022.36 1022.23
1011.92 1011.27 1010.76 1010.34 1009.96 1009.58 1009.15 1008.66 1008.12 1007.55 1007.01 1006.56 1006.25 1006.14 1006.24 1006.54 1007.03 1007.66 1008.39 1009.16 1009.95 1010.74 1011.52 1012.31 1013.13 1013.98 1014.88 1015.80 1016.74 1017.65 1018.50 1019.25 1019.88 1020.37 1020.74 1021.01 1021.22 1021.38 1021.55 1021.73 1021.92 1022.13 1022.33 1022.50 1022.62 1022.69 1022.70 1022.65 1022.56
1011.19 1010.38 1009.77 1009.34 1009.02 1008.76 1008.50 1008.19 1007.84 1007.45 1007.06 1006.74 1006.52 1006.45 1006.56 1006.86 1007.32 1007.91 1008.58 1009.29 1010.01 1010.73 1011.44 1012.16 1012.91 1013.71 1014.56 1015.46 1016.39 1017.31 1018.19 1018.99 1019.67 1020.22 1020.66 1020.99 1021.25 1021.46 1021.66 1021.86 1022.07 1022.29 1022.50 1022.69 1022.84 1022.93 1022.97 1022.96 1022.91
1010.60 1009.62 1008.93 1008.48 1008.23 1008.11 1008.03 1007.94 1007.82 1007.64 1007.43 1007.23 1007.10 1007.08 1007.20 1007.46 1007.87 1008.40 1008.99 1009.63 1010.27 1010.91 1011.55 1012.19 1012.87 1013.59 1014.38 1015.22 1016.11 1017.01 1017.88 1018.69 1019.41 1020.02 1020.51 1020.90 1021.22 1021.48 1021.71 1021.95 1022.18 1022.42 1022.65 1022.85 1023.03 1023.16 1023.24 1023.28 1023.28
1010.29 1009.17 1008.40 1007.97 1007.80 1007.81 1007.93 1008.06 1008.16 1008.19 1008.16 1008.09 1008.05 1008.05 1008.16 1008.38 1008.72 1009.17 1009.68 1010.23 1010.80 1011.36 1011.91 1012.47 1013.06 1013.69 1014.38 1015.14 1015.95 1016.79 1017.62 1018.42 1019.14 1019.78 1020.31 1020.75 1021.12 1021.43 1021.71 1021.97 1022.23 1022.49 1022.74 1022.98 1023.18 1023.35 1023.48 1023.56 1023.62
1010.40 1009.19 1008.39 1007.98 1007.89 1008.04 1008.33 1008.66 1008.96 1009.17 1009.29 1009.34 1009.34 1009.37 1009.44 1009.61 1009.87 1010.23 1010.66 1011.12 1011.61 1012.09 1012.56 1013.02 1013.51 1014.03 1014.60 1015.24 1015.94 1016.68 1017.44 1018.18 1018.89 1019.52 1020.08 1020.56 1020.96 1021.31 1021.63 1021.93 1022.21 1022.50 1022.77 1023.03 1023.27 1023.48 1023.65 1023.79 1023.91
1011.03 1009.80 1009.00 1008.63 1008.62 1008.88 1009.31 1009.79 1010.24 1010.59 1010.81 1010.92 1010.96 1010.97 1011.01 1011.10 1011.29 1011.56 1011.90 1012.28 1012.69 1013.08 1013.47 1013.84 1014.21 1014.60 1015.04 1015.53 1016.09 1016.70 1017.35 1018.02 1018.67 1019.27 1019.82 1020.31 1020.74 1021.12 1021.47 1021.79 1022.10 1022.41 1022.71 1023.00 1023.27 1023.52 1023.74 1023.93 1024.10
1012.19 1011.01 1010.26 1009.94 1010.00 1010.34 1010.85 1011.42 1011.95 1012.37 1012.64 1012.78 1012.81 1012.79 1012.77 1012.79 1012.89 1013.08 1013.34 1013.65 1013.97 1014.29 1014.59 1014.86 1015.11 1015.37 1015.66 1015.99 1016.39 1016.85 1017.37 1017.93 1018.49 1019.05 1019.57 1020.04 1020.48 1020.87 1021.23 1021.56 1021.89 1022.22 1022.54 1022.85 1023.16 1023.45 1023.71 1023.95 1024.17
1013.84 1012.77 1012.11 1011.85 1011.95 1012.32 1012.85 1013.44 1013.98 1014.40 1014.66 1014.77 1014.77 1014.69 1014.61 1014.56 1014.59 1014.70 1014.89 1015.13 1015.38 1015.63 1015.84 1016.01 1016.15 1016.27 1016.40 1016.58 1016.81 1017.12 1017.49 1017.92 1018.38 1018.86 1019.33 1019.77 1020.18 1020.56 1020.91 1021.25 1021.58 1021.91 1022.25 1022.59 1022.92 1023.24 1023.55 1023.83 1024.09
1015.84 1014.92 1014.36 1014.15 1014.26 1014.61 1015.11 1015.65 1016.13 1016.49 1016.70 1016.75 1016.69 1016.55 1016.41 1016.29 1016.26 1016.30 1016.43 1016.61 1016.80 1016.97 1017.10 1017.18 1017.21 1017.20 1017.20 1017.22 1017.30 1017.46 1017.69 1017.99 1018.35 1018.73 1019.13 1019.51 1019.88 1020.23 1020.56 1020.87 1021.19 1021.52 1021.86 1022.22 1022.57 1022.92 1023.27 1023.59 1023.89
Thickness
5690 5691 5690 5683 5666 5651 5655 5668 5675 5680 5685 5692 5695 5696 5694 5694 5693 5696 5708 5716 5717 5717 5717 5717 5716 5715 5714 5713 5712 5712 5711 5711 5711 5710 5710 5710 5709 5709 5709 5709 5708 5708 5708 5708 5708 5708 5708 5707 5707
5685 5685 5679 5666 5650 5643 5654 5667 5672 5679 5686 5689 5691 5692 5692 5693 5698 5702 5706 5710 5713 5713 5713 5713 5712 5711 5710 5709 5708 5708 5707 5706 5706 5705 5705 5705 5705 5705 5704 5704 5704 5703 5703 5703 5703 5703 5702 5702 5702
5679 5677 5664 5651 5644 5646 5659 5669 5671 5677 5681 5684 5683 5686 5688 5690 5695 5698 5703 5706 5708 5708 5708 5708 5708 5707 5706 5705 5704 5703 5702 5702 5702 5701 5701 5701 5700 5700 5699 5699 5698 5698 5698 5698 5697 5697 5697 5697 5697
5669 5661 5651 5643 5645 5652 5661 5667 5668 5670 5675 5677 5677 5677 5683 5690 5692 5696 5700 5702 5702 5703 5704 5703 5703 5702 5702 5701 5700 5699 5698 5698 5697 5696 5696 5696 5695 5695 5694 5694 5693 5693 5692 5692 5692 5691 5691 5691 5691
5657 5646 5637 5634 5642 5651 5657 5661 5664 5664 5666 5669 5670 5670 5676 5685 5690 5693 5695 5697 5697 5697 5698 5698 5698 5697 5697 5696 5695 5694 5693 5693 5692 5692 5691 5690 5690 5689 5689 5688 5687 5687 5687 5686 5686 5685 5686 5686 5685
5640 5634 5625 5628 5639 5647 5652 5656 5658 5658 5659 5662 5662 5664 5671 5679 5683 5686 5688 5690 5691 5692 5692 5692 5692 5692 5691 5691 5690 5689 5688 5688 5687 5686 5685 5685 5684 5684 5683 5682 5682 5681 5680 5680 5680 5679 5679 5679 5679
5630 5623 5622 5627 5631 5638 5647 5650 5650 5651 5652 5655 5658 5657 5665 5672 5676 5679 5681 5683 5684 5685 5686 5686 5686 5686 5685 5685 5684 5683 5683 5682 5681 5680 5680 5679 5679 5678 5677 5676 5676 5675 5674 5674 5674 5673 5673 5673 5673
5624 5616 5616 5617 5623 5632 5639 5641 5645 5645 5647 5653 5654 5652 5657 5665 5668 5671 5673 5674 5676 5678 5679 5680 5680 5680 5679 5678 5678 5677 5677 5676 5675 5674 5673 5673 5672 5672 5671 5670 5669 5669 5668 5668 5668 5667 5667 5667 5666
5619 5606 5608 5613 5618 5626 5631 5632 5635 5639 5640 5643 5647 5651 5656 5658 5660 5662 5663 5665 5667 5670 5672 5673 5673 5674 5673 5672 5671 5671 5670 5669 5668 5667 5667 5666 5665 5665 5664 5663 5663 5663 5662 5662 5661 5661 5660 5660 5659
5605 5597 5609 5615 5617 5620 5622 5624 5626 5629 5630 5633 5637 5642 5646 5649 5651 5653 5654 5656 5659 5661 5664 5666 5667 5667 5667 5666 5665 5664 5663 5662 5661 5661 5660 5659 5659 5658 5657 5657 5656 5656 5656 5655 5655 5654 5654 5653 5653
5597 5596 5605 5609 5611 5612 5613 5615 5618 5620 5622 5627 5630 5633 5636 5640 5642 5645 5647 5650 5652 5654 5656 5658 5659 5660 5660 5659 5658 5657 5655 5655 5654 5654 5653 5652 5652 5651 5650 5650 5649 5649 5649 5648 5648 5648 5647 5647 5646
5587 5591 5596 5601 5604 5603 5603 5606 5608 5612 5619 5623 5625 5627 5629 5632 5635 5638 5641 5643 5644 5646 5649 5651 5652 5653 5653 5653 5651 5650 5649 5647 5647 5647 5646 5646 5645 5644 5643 5643 5642 5642 5641 5641 5641 5641 5641 5640 5640
5579 5583 5587 5589 5591 5593 5594 5595 5599 5605 5610 5613 5615 5618 5620 5624 5627 5630 5633 5635 5636 5638 5641 5643 5644 5645 5646 5645 5644 5643 5642 5642 5640 5640 5640 5639 5638 5637 5636 5635 5635 5634 5634 5634 5634 5635 5635 5634 5634
5572 5574 5576 5579 5581 5584 5585 5587 5590 5599 5600 5602 5605 5607 5611 5615 5618 5621 5624 5627 5629 5632 5634 5636 5637 5638 5638 5638 5637 5636 5636 5635 5634 5633 5633 5632 5632 5631 5629 5628 5628 5627 5627 5628 5628 5628 5629 5628 5628
5565 5563 5566 5570 5572 5574 5576 5578 5583 5590 5590 5592 5595 5597 5601 5605 5609 5613 5617 5620 5623 5624 5626 5628 5629 5630 5630 5630 5630 5629 5629 5628 5628 5627 5626 5626 5625 5624 5623 5621 5620 5620 5620 5620 5620 5621 5622 5621 5621
5552 5549 5550 5561 5563 5565 5564 5567 5579 5579 5579 5582 5585 5587 5591 5596 5601 5606 5609 5612 5615 5616 5618 5619 5621 5622 5622 5623 5622 5622 5621 5621 5621 5620 5619 5618 5618 5617 5616 5614 5613 5613 5613 5613 5613 5614 5614 5614 5613
5535 5533 5539 5548 5554 5553 5552 5556 5567 5568 5568 5571 5574 5577 5581 5587 5592 5597 5601 5604 5606 5608 5610 5611 5613 5613 5614 5614 5614 5614 5613 5613 5613 5613 5612 5611 5610 5609 5609 5607 5606 5606 5606 5605 5606 5606 5606 5606 5606
5525 5523 5529 5534 5541 5540 5540 5545 5554 5557 5558 5560 5564 5567 5572 5577 5584 5588 5592 5595 5597 5599 5601 5603 5604 5605 5605 5605 5604 5604 5604 5603 5604 5604 5604 5604 5603 5602 5601 5600 5599 5599 5598 5598 5598 5598 5598 5598 5598
5520 5519 5520 5525 5530 5528 5530 5535 5544 5546 5546 5549 5552 5556 5562 5568 5574 5577 5581 5584 5586 5588 5590 5593 5594 5595 5596 5596 5595 5595 5594 5595 5595 5596 5596 5596 5596 5595 5594 5592 5592 5591 5591 5591 5591 5590 5589 5589 5590
5514 5512 5511 5516 5521 5521 5519 5525 5535 5537 5539 5542 5545 5548 5552 5556 5562 5566 5570 5572 5575 5578 5580 5582 5585 5585 5587 5588 5588 5588 5587 5586 5587 5587 5587 5588 5588 5587 5586 5585 5585 5584 5584 5583 5583 5583 5582 5581 5581
5509 5505 5505 5505 5508 5509 5509 5519 5527 5532 5533 5535 5538 5541 5543 5547 5551 5556 5559 5561 5564 5567 5570 5573 5574 5576 5577 5578 5577 5577 5576 5575 5575 5576 5578 5579 5579 5579 5578 5577 5578 5577 5577 5576 5576 5576 5575 5574 5572
5502 5503 5500 5499 5493 5490 5495 5496 5519 5523 5525 5529 5530 5531 5534 5537 5541 5545 5549 5551 5553 5557 5559 5562 5563 5565 5567 5567 5568 5568 5569 5568 5567 5568 5569 5569 5570 5570 5570 5569 5569 5569 5569 5568 5568 5568 5568 5567 5565
5490 5493 5490 5488 5481 5477 5482 5480 5504 5512 5516 5522 5524 5524 5526 5529 5532 5535 5538 5540 5543 5546 5548 5551 5553 5554 5555 5556 5558 5558 5559 5559 5557 5557 5558 5559 5559 5560 5561 5561 5560 5560 5560 5560 5559 5559 5559 5559 5559
5482 5478 5474 5467 5466 5470 5476 5473 5490 5496 5511 5518 5518 5517 5518 5519 5522 5525 5528 5530 5531 5534 5537 5540 5542 5543 5545 5546 5547 5548 5548 5548 5547 5547 5548 5548 5549 5550 5550 5550 5551 5551 5551 5551 5551 5551 5551 5551 5551
5471 5463 5452 5451 5446 5460 5468 5469 5485 5500 5505 5507 5509 5509 5509 5510 5512 5514 5516 5518 5520 5523 5526 5530 5532 5533 5534 5535 5536 5538 5538 5538 5539 5539 5539 5539 5539 5539 5540 5540 5541 5541 5541 5542 5542 5542 5542 5542 5542
5461 5459 5447 5445 5441 5449 5455 5460 5485 5495 5496 5497 5499 5499 5499 5500 5502 5504 5506 5508 5510 5513 5516 5519 5522 5523 5525 5526 5526 5527 5528 5528 5529 5530 5530 5530 5530 5530 5530 5530 5531 5532 5532 5532 5532 5532 5533 5532 5532
5453 5450 5448 5435 5428 5433 5445 5454 5476 5489 5489 5488 5489 5489 5489 5490 5492 5494 5496 5498 5500 5503 5506 5509 5512 5514 5515 5516 5516 5517 5517 5518 5519 5519 5521 5521 5521 5520 5521 5521 5522 5522 5522 5522 5523 5523 5523 5524 5524
5448 5441 5429 5428 5432 5437 5446 5450 5466 5477 5480 5480 5478 5478 5480 5482 5483 5485 5486 5489 5491 5493 5496 5499 5502 5504 5505 5506 5507 5508 5508 5509 5509 5510 5510 5511 5511 5511 5511 5512 5512 5512 5513 5513 5513 5514 5515 5514 5515
5435 5434 5429 5422 5424 5428 5431 5455 5470 5469 5472 5469 5469 5469 5470 5472 5474 5475 5476 5478 5480 5483 5485 5488 5491 5493 5495 5496 5496 5497 5498 5499 5499 5499 5500 5501 5502 5503 5503 5502 5503 5503 5503 5504 5504 5505 5506 5506 5506
5433 5431 5423 5422 5417 5413 5421 5448 5468 5463 5462 5461 5461 5461 5462 5462 5464 5466 5467 5469 5471 5473 5476 5478 5481 5483 5485 5486 5488 5488 5489 5489 5489 5490 5492 5492 5493 5494 5494 5494 5494 5495 5495 5496 5496 5496 5498 5498 5498